Skip Page Navigation
NASA JPL Caltech
NASA Logo - Jet Propulsion Laboratory + View the NASA Portal
+ Center for Near-Earth Object Studies
JPL Home Earth Solar System Stars & Galaxies Technology
JPL Solar System Dynamics
BODIES ORBITS EPHEMERIDES TOOLS PHYSICAL DATA DISCOVERY FAQ SITE MAP
IMPORTANT: The SSD Announcement email list is now available. Major changes are coming in the near future, including possible hostname and/or URL changes. To be notified of such changes, subscribe to this email list.

Please visit this page for more details.


JPL Small-Body Database Browser
Search: [ help ]  
85473 (1997 LV5)
Classification: Main-belt Asteroid          SPK-ID: 2085473
Ephemeris | Orbit Diagram | Orbital Elements | Mission Design | Physical Parameters | Discovery Circumstances ]

[ show orbit diagram ]
Orbital Elements at Epoch 2459000.5 (2020-May-31.0) TDB
Reference: JPL 13 (heliocentric ecliptic J2000)
 Element Value Uncertainty (1-sigma)   Units 
e .2012612455729761 5.9194e-08  
a 2.45010404984281 2.1119e-08 au
q 1.956993056988053 1.4807e-07 au
i .4674698146093207 5.6161e-06 deg
node 285.9657464854225 0.00091043 deg
peri 45.32268357950543 0.00091071 deg
M 325.5490334406894 3.446e-05 deg
tp 2459134.552256659091
(2020-Oct-12.05225666)
0.00013561 TDB
period 1400.797052070824
3.84
1.8111e-05
4.959e-08
d
yr
n .256996543123649 3.3228e-09 deg/d
Q 2.943215042697568 2.5369e-08 au
  Orbit Determination Parameters
   # obs. used (total)      342  
   data-arc span      7987 days (21.87 yr)  
   first obs. used      1997-06-12  
   last obs. used      2019-04-25  
   planetary ephem.      DE431  
   SB-pert. ephem.      SB431-N16  
   condition code      0  
   norm. resid. RMS      .58861  
   source      ORB  
   producer      Otto Matic  
   solution date      2019-Jul-13 07:08:00  

Additional Information
 Earth MOID = .946353 au 
 Jupiter MOID = 2.41745 au 
 T_jup = 3.468 
[ show covariance matrix ]

Ephemeris | Orbit Diagram | Orbital Elements | Mission Design | Physical Parameters | Discovery Circumstances ]

Physical Parameter Table
Parameter Symbol Value Units Sigma Reference Notes
absolute magnitude H 16.7   n/a MPO233901  

85473 (1997 LV5)          Discovered 1997-Jun-12 by Offutt, W. at Cloudcroft
Reference: 20040830/Numbers.arcLast Updated: 2004-09-06

Alternate Designations
 1997 LV5 = 2001 QB159 
Ephemeris | Orbit Diagram | Orbital Elements | Mission Design | Physical Parameters | Discovery Circumstances ]
ABOUT SSD CREDITS/AWARDS PRIVACY/COPYRIGHT GLOSSARY LINKS
FirstGov 2020-Apr-06 13:17 UT
(server date/time)  
NASA Home Page
Site Manager:   Ryan S. Park
Webmaster  Alan B. Chamberlin